User: anonymous   Login
Location: Caltech
(34.1382°N, 118.1253°W)
Time: 15:27:51
(UTC-08:00)
Language:

Gbstr 26 Del rocket - Orbit

View from above orbital plane
View from above orbital plane
View from above satellite
View from above satellite

Ground track
Ground track

The orbit data is extracted from the following two-line orbital elements,

1 25876U 99041E   17054.16336731  .00000065  00000-0  53507-4 0  9993
2 25876  51.7641  46.7067 0532234  55.7577 309.2597 14.03986466898602
Epoch (UTC): 23 February 2017 03:55:14
Eccentricity: 0.0532234
inclination: 51.7641°
perigee height: 494 km
apogee height: 1266 km
right ascension of ascending node: 46.7067°
argument of perigee: 55.7577°
revolutions per day: 14.03986466
mean anomaly at epoch: 309.2597°
orbit number at epoch: 89860

The dashed part of the orbit path shows where the satellite is in the earth's shadow,  

DLR